This demonstration page uses our WeatherBlox Daily Observations layout. Learn more.

38.88101, -77.10428

Hourly Observations for April 24, 2018

Temp ( °F °C ) Dew Point ( °F °C ) Humidity (%) Winds ( mph kmh ) Pressure ( in mb ) Visibility ( mi km ) Precip ( " mm )
12:52 am 00:52 Cloudy 56 13.3 35 1.7 46 46 ESE 9 15 30.34 1028 10 16.0934 0 0
1:52 am 01:52 Cloudy 56 13.3 34 1.1 44 44 ESE 7 11 30.34 1027 10 16.0934 0 0
2:52 am 02:52 Cloudy 56 13.3 36 2.2 47 47 ESE 10 17 30.32 1027 10 16.0934 0 0
3:52 am 03:52 Cloudy 56 13.3 38 3.3 51 51 ESE 8 13 30.31 1026 10 16.0934 0 0
4:52 am 04:52 Cloudy 55 12.8 39 3.9 55 55 ESE 9 15 30.3 1026 10 16.0934 0 0
5:52 am 05:52 Cloudy 55 12.8 40 4.4 57 57 E 8 13 30.29 1026 10 16.0934 0 0
6:52 am 06:52 Cloudy 55 12.8 41 5 59 59 E 8 13 30.3 1026 10 16.0934 0 0
7:52 am 07:52 Cloudy 56 13.3 42 5.6 60 60 ENE 9 15 30.29 1026 10 16.0934 0 0
8:52 am 08:52 Cloudy 58 14.4 44 6.7 60 60 E 9 15 30.28 1025 10 16.0934 0 0
9:52 am 09:52 Cloudy 59 15 45 7.2 60 60 ESE 9 15 30.27 1025 10 16.0934 0 0
10:52 am 10:52 Cloudy 61 16.1 46 7.8 58 58 SE 13 20 30.26 1025 10 16.0934 0 0
11:52 am 11:52 Cloudy 62 16.7 47 8.3 58 58 SE 17 28 30.23 1024 10 16.0934 0 0
12:52 pm 12:52 Cloudy 63 17.2 47 8.3 56 56 SE 20 31 30.2 1023 10 16.0934 0 0
1:52 pm 13:52 Cloudy 63 17.2 47 8.3 56 56 ESE 17 28 30.18 1022 10 16.0934 0 0
2:52 pm 14:52 Cloudy with Light Rain 61 16.1 48 8.9 63 63 SE 14 22 30.16 1021 10 16.0934 0 0.0254
3:52 pm 15:52 Cloudy with Light Rain 60 15.6 50 10 70 70 E 8 13 30.12 1020 10 16.0934 0.02 0.508
4:52 pm 16:52 Cloudy with Light Rain 59 15 51 10.6 75 75 E 9 15 30.1 1019 10 16.0934 0.03 0.762
5:52 pm 17:52 Cloudy with Light Rain 59 15 52 11.1 78 78 E 9 15 30.08 1019 10 16.0934 0.02 0.508
6:28 pm 18:28 Cloudy with Light Rain 58 14.4 51 10.6 78 78 E 13 20 30.06 1018 5 8.0467 0.01 0.254
6:52 pm 18:52 Cloudy with Light Rain 57 13.9 52 11.1 83 83 E 14 22 30.07 1018 6 9.65604 0.03 0.762
7:04 pm 19:04 Cloudy with Light Rain 57 13.9 52 11.1 83 83 E 10 17 30.06 1018 2.5 4.02335 0.01 0.254
7:27 pm 19:27 Cloudy with Light Rain 56 13.3 53 11.7 90 90 E 9 15 30.06 1018 3 4.82802 0.02 0.508
7:29 pm 19:29 Cloudy with Light Rain 56 13.3 53 11.7 90 90 ENE 9 15 30.06 1018 3 4.82802 0.02 0.508
7:35 pm 19:35 Cloudy with Light Rain 56 13.3 53 11.7 90 90 ENE 8 13 30.06 1018 2.5 4.02335 0.03 0.762
7:47 pm 19:47 Cloudy with Light Rain 55 13 54 12 94 94 VRB 7 11 30.06 1018 3 4.82802 0.04 1.016
7:52 pm 19:52 Cloudy with Light Rain 56 13.3 52 11.1 87 87 E 9 15 30.06 1018 5 8.0467 0.04 1.016
8:01 pm 20:01 Cloudy with Light Rain 56 13.3 52 11.1 87 87 ENE 12 19 30.06 1018 8 12.87472 0 0.0254
8:04 pm 20:04 Cloudy 56 13.3 52 11.1 87 87 E 10 17 30.06 1018 9 14.48406 0 0.0254
8:06 pm 20:06 Cloudy 56 13.3 52 11.1 87 87 ENE 10 17 30.06 1018 10 16.0934 0 0.0254
8:17 pm 20:17 Cloudy with Light Rain 56 13.3 52 11.1 87 87 NE 10 17 30.03 1017 7 11.26538 0 0.0254
8:26 pm 20:26 Cloudy with Light Rain 56 13.3 52 11.1 87 87 ENE 15 24 30.03 1017 4 6.43736 0.01 0.254
8:30 pm 20:30 Cloudy with Light Rain 56 13.3 52 11.1 87 87 ENE 16 26 30.03 1017 4 6.43736 0.01 0.254
8:35 pm 20:35 Cloudy with Light Rain 56 13.3 52 11.1 87 87 E 15 24 30.03 1017 5 8.0467 0.01 0.254
8:45 pm 20:45 Cloudy with Light Rain 56 13.3 51 10.6 84 84 ENE 16 26 30.03 1017 9 14.48406 0.01 0.254
8:47 pm 20:47 Cloudy with Light Rain 55 13 52 11 88 88 ENE 14 22 30.03 1017 9 14.48406 0.01 0.254
8:52 pm 20:52 Cloudy with Light Rain 56 13.3 51 10.6 84 84 ENE 15 24 30.03 1017 7 11.26538 0.02 0.508
9:02 pm 21:02 Cloudy with Light Rain 55 12.8 51 10.6 87 87 ENE 15 24 30.03 1017 7 11.26538 0 0.0254
9:04 pm 21:04 Cloudy with Light Rain 55 12.8 51 10.6 87 87 ENE 14 22 30.03 1017 8 12.87472 0 0.0254
9:12 pm 21:12 Cloudy with Light Rain 55 12.8 51 10.6 87 87 NE 13 20 30.03 1017 10 16.0934 0 0.0254
9:18 pm 21:18 Cloudy with Light Rain 55 12.8 51 10.6 87 87 NE 14 22 30.03 1017 7 11.26538 0 0.0254
9:21 pm 21:21 Cloudy with Light Rain 55 12.8 51 10.6 87 87 NE 15 24 30.03 1017 6 9.65604 0.01 0.254
9:43 pm 21:43 Cloudy with Light Rain 55 12.8 52 11.1 90 90 NE 10 17 30.03 1017 5 8.0467 0.03 0.762
9:52 pm 21:52 Cloudy with Rain 55 12.8 52 11.1 90 90 NNE 10 17 30.02 1017 4 6.43736 0.05 1.27
10:20 pm 22:20 Cloudy with Light Rain 55 12.8 52 11.1 90 90 NE 12 19 30 1016 3 4.82802 0.08 2.032
10:26 pm 22:26 Cloudy with Light Rain 55 12.8 52 11.1 90 90 NE 14 22 30 1016 5 8.0467 0.09 2.286
10:33 pm 22:33 Cloudy with Light Rain 55 12.8 52 11.1 90 90 ENE 9 15 30 1016 6 9.65604 0.09 2.286
10:36 pm 22:36 Cloudy with Light Rain 55 12.8 52 11.1 90 90 ENE 12 19 30 1016 6 9.65604 0.09 2.286
10:38 pm 22:38 Cloudy with Light Rain 55 12.8 52 11.1 90 90 ENE 10 17 30 1016 7 11.26538 0.09 2.286
10:45 pm 22:45 Cloudy with Light Rain 55 12.8 52 11.1 90 90 ENE 10 17 29.97 1015 7 11.26538 0.09 2.286
10:52 pm 22:52 Cloudy with Light Rain 55 12.8 52 11.1 90 90 NE 12 19 29.97 1015 7 11.26538 0.1 2.54
11:37 pm 23:37 Cloudy with Light Rain 55 12.8 52 11.1 90 90 NE 8 13 29.97 1015 8 12.87472 0.01 0.254
11:52 pm 23:52 Cloudy with Light Rain 55 12.8 52 11.1 90 90 NE 9 15 29.95 1014 8 12.87472 0.02 0.508

Powered by AerisWeather